Location: Les Coudrans
(46.1056°N, 1.1158°W)
Time: 05:23:16
(UTC+00:00)

Cosmos 2278 Rocket - Pass Details

Date: 03 March 2021
Orbit: 841 x 845 km, 71.0° (Epoch: 18 April)

Event Time Altitude Azimuth Distance (km) Brightness Sun altitude
Rises 18:39:11 0° 341° (NNW) 3,415 5.6 -8.7°
Reaches altitude 10° 18:43:08 10° 8° (N) 2,476 4.6 -9.3°
Maximum altitude 18:45:48 13° 37° (NE) 2,244 4.1 -9.8°
Drops below altitude 10° 18:48:27 10° 65° (ENE) 2,470 4.1 -10.3°
Enters shadow 18:48:31 10° 65° (ENE) 2,480 4.1 -10.3°
